FW6464 Weather Reports


time (UTC)temp
F
wind
direction
speed
knots
gust
knots
rain 1hr
in
rain 24hr
in
rain mn
in
humidity
%
barometer
mb
20260510153039 77 78 1.7 3.5 0.00 0.88 0.00 77 1016.3
20260510151550 76 88 0.9 3.5 0.00 0.88 0.00 80 1016.0
20260510150100 76 337 0.9 2.6 0.00 0.88 0.00 82 1016.5
20260510144605 74 75 0.9 3.5 0.00 1.09 0.00 85 1016.5
20260510143110 73 98 0.9 2.6 0.00 1.09 0.00 85 1016.8
20260510141540 72 37 0.9 3.5 0.00 1.09 0.00 90 1016.6
20260510140047 70 24 0.9 2.6 0.00 1.09 0.00 95 1016.4
20260510134547 69 92 0.9 3.5 0.00 3.16 0.00 97 1016.2
20260510133048 69 57 0.0 1.7 0.00 3.16 0.00 97 1016.0
20260510131545 68 79 0.0 0.9 0.00 3.16 0.00 97 1016.1
20260510130047 67 81 0.9 1.7 0.00 3.16 0.00 97 1015.9
20260510124542 66 63 0.0 1.7 0.00 3.16 0.00 97 1015.8
20260510123045 66 0 0.0 0.9 0.00 3.16 0.00 97 1015.8
20260510121545 65 0 0.0 0.9 0.00 3.16 0.00 97 1015.3
20260510120046 65 0 0.0 0.9 0.00 3.16 0.00 97 1015.0
20260510114604 64 91 0.0 0.9 0.00 3.18 0.00 97 1014.8
20260510113055 64 0 0.0 0.9 0.00 3.18 0.00 97 1014.3
20260510111546 64 0 0.0 0.9 0.00 3.18 0.00 97 1014.1
20260510110043 64 0 0.0 0.9 0.00 3.18 0.00 97 1014.0
20260510104554 64 0 0.0 0.9 0.00 3.19 0.00 97 1013.8
20260510103040 64 0 0.0 0.9 0.00 3.19 0.00 97 1013.5
20260510101548 64 0 0.0 1.7 0.00 3.19 0.00 97 1013.5
20260510100058 64 0 0.0 0.9 0.00 3.19 0.00 97 1013.3
20260510094552 64 0 0.0 0.9 0.00 3.21 0.00 97 1013.0
20260510093044 64 136 0.0 0.9 0.00 3.21 0.00 97 1012.9
20260510091540 64 0 0.0 0.9 0.00 3.21 0.00 97 1013.0
20260510090039 65 0 0.0 0.9 0.00 3.21 0.00 97 1012.9
20260510084546 65 0 0.0 0.9 0.00 3.26 0.00 97 1012.8
20260510083045 65 0 0.0 0.9 0.00 3.26 0.00 97 1012.5
20260510081543 65 229 0.0 0.9 0.00 3.26 0.00 97 1012.4
20260510080044 65 0 0.0 0.9 0.00 3.26 0.00 97 1012.4
20260510074543 65 0 0.0 0.0 0.00 3.29 0.00 97 1012.3
20260510073048 66 111 0.0 0.9 0.00 3.29 0.00 97 1012.2
20260510071545 66 0 0.0 0.9 0.00 3.29 0.00 97 1012.3
20260510070103 66 202 0.0 0.9 0.00 3.29 0.00 97 1012.2
20260510064549 66 297 0.0 0.9 0.00 4.13 0.00 97 1012.7
20260510063044 66 0 0.0 0.9 0.00 4.13 0.00 97 1012.4
20260510061546 66 0 0.0 0.9 0.00 4.13 0.00 97 1012.4
20260510060048 66 0 0.0 0.9 0.00 4.13 0.00 97 1012.6
20260510054552 66 102 0.0 0.9 0.00 4.13 0.00 97 1012.6
20260510053043 66 0 0.0 0.0 0.00 4.13 0.00 97 1013.1
20260510051544 66 0 0.0 0.9 0.00 4.13 0.00 97 1012.8
20260510050044 67 0 0.0 0.9 0.00 4.13 0.00 97 1012.5
20260510044540 67 101 0.9 1.7 0.00 4.13 4.13 97 1012.6
20260510043047 67 188 0.0 0.9 0.00 4.13 4.13 97 1013.0
20260510041550 67 243 0.0 0.9 0.00 4.13 4.13 97 1013.1
20260510040045 67 158 0.0 0.0 0.00 4.13 4.13 97 1012.9
20260510034547 67 0 0.0 0.0 0.00 4.13 4.13 97 1013.1
20260510033058 67 0 0.0 0.0 0.00 4.13 4.13 96 1013.4
20260510031549 67 159 0.0 0.9 0.00 4.13 4.13 97 1013.7
20260510030043 68 0 0.0 0.9 0.00 4.13 4.13 96 1013.5
20260510024547 68 176 0.9 1.7 0.01 4.13 4.13 96 1013.4
20260510023041 68 266 0.0 0.9 0.01 4.13 4.13 97 1012.2
20260510021545 68 147 0.0 0.0 0.01 4.13 4.13 97 1012.2
20260510020047 68 0 0.0 0.9 0.01 4.13 4.13 96 1012.5
20260510014544 68 269 0.0 0.9 0.00 4.15 4.12 96 1012.1
20260510013044 68 0 0.0 0.9 0.00 4.15 4.12 96 1012.5
20260510011543 68 319 0.0 0.9 0.01 4.15 4.12 96 1011.8
20260510010045 68 0 0.0 0.9 0.01 4.15 4.12 96 1011.9
20260510004554 68 0 0.0 0.9 0.02 4.19 4.12 96 1012.0
20260510003056 68 0 0.0 0.9 0.03 4.19 4.12 96 1012.0
20260510001546 68 0 0.0 0.9 0.03 4.19 4.11 96 1012.2
20260510000052 68 0 0.0 0.0 0.03 4.19 4.11 96 1012.6
20260509234549 68 0 0.0 0.0 0.03 4.19 4.10 96 1012.5
20260509233040 68 0 0.0 0.9 0.03 4.19 4.09 96 1012.7
20260509231545 68 0 0.0 0.9 0.02 4.17 4.08 96 1012.0
20260509230044 68 0 0.0 0.9 0.02 4.17 4.08 96 1011.0
20260509224543 68 0 0.0 0.9 0.02 4.25 4.07 95 1011.8
20260509223046 68 139 0.0 1.7 0.03 4.23 4.06 95 1012.1
20260509221541 68 256 0.0 0.9 0.07 4.23 4.06 96 1012.1
20260509220054 68 257 0.0 1.7 0.09 4.23 4.06 95 1011.5
20260509214546 68 350 0.0 5.2 0.12 4.32 4.05 95 1010.4
20260509213044 68 96 0.9 2.6 0.11 4.30 4.03 95 1010.5
20260509211546 68 68 0.0 0.9 0.07 4.25 3.98 96 1010.9
20260509210041 68 340 0.0 0.9 0.08 4.23 3.97 95 1011.4
20260509204557 68 101 0.0 1.7 0.06 4.34 3.93 95 1011.1
20260509203046 68 0 0.0 1.7 0.07 4.33 3.92 95 1011.0
20260509201543 69 263 0.0 0.9 0.09 4.32 3.91 96 1011.8
20260509200045 69 47 0.0 0.9 0.10 4.30 3.89 95 1011.6
20260509194543 69 201 0.0 1.7 0.10 4.29 3.86 96 1012.0
20260509193050 69 276 0.0 2.6 0.14 4.27 3.84 96 1012.1
20260509191553 69 245 0.9 2.6 0.18 4.25 3.82 96 1011.3
20260509190047 69 121 0.0 1.7 0.18 4.21 3.79 96 1010.9
20260509184543 68 63 0.0 2.6 0.20 4.19 3.76 96 1011.4
20260509183044 68 232 0.0 2.6 0.20 4.13 3.70 96 1011.6
20260509181545 67 58 0.0 2.6 0.16 4.07 3.64 96 1012.2
20260509180043 67 104 0.9 1.7 0.14 4.03 3.60 96 1012.3
20260509174553 67 94 0.9 1.7 0.11 3.99 3.56 96 1012.7
20260509173052 67 107 0.0 2.6 0.06 3.93 3.50 96 1012.7
20260509171551 67 103 0.0 1.7 0.06 3.91 3.48 96 1012.5
20260509170045 66 139 0.0 0.9 0.03 3.88 3.45 96 1012.6
20260509164547 66 353 0.0 2.6 0.05 3.88 3.45 96 1012.7
20260509163048 65 27 0.0 3.5 0.07 3.87 3.44 95 1012.7
20260509161545 65 68 0.9 2.6 0.11 3.85 3.42 95 1012.8
20260509160044 65 47 0.9 5.2 0.17 3.85 3.42 96 1013.0
20260509154556 64 56 0.9 3.5 0.18 3.83 3.40 96 1013.5